Simultaneous Nadir Overpasses (SNOs) Predictions

Prediction of SNOs between AURA and LANDSAT-8 Satellite Orbit:

Table of predicted SNOs for the next 14.0 days since TLE Epoch: 10/31/2025
Index Date (AURA) Time (AURA) Lat,Lon (AURA) SZA (AURA ) Date (LANDSAT-8) Time (LANDSAT-8) Lat,Lon (LANDSAT-8) SZA (LANDSAT-8 ) Distance(km) Time Diff (sec)
1 11/12/2025 10:16:26 -73.62,-149.01 88.47 11/12/2025 10:15:20 -73.62,-151.46 88.57 76.68 66
2 11/12/2025 11:05:50 73.85, 18.15 91.75 11/12/2025 11:04:41 73.84, 16.66 91.68 46.18 69
3 11/12/2025 11:55:15 -74.19,-174.96 87.93 11/12/2025 11:54:02 -74.19,-174.91 87.94 1.81 73
4 11/12/2025 12:44:35 74.21, -7.35 92.10 11/12/2025 12:43:27 74.20, -7.24 92.09 3.43 68
5 11/12/2025 13:33:53 -74.19, 160.38 87.91 11/12/2025 13:32:55 -74.19, 160.38 87.92 0.48 58
6 11/12/2025 14:23:13 74.21, -32.01 92.12 11/12/2025 14:22:20 74.20, -31.95 92.11 1.81 53
7 11/12/2025 15:12:31 -74.19, 135.72 87.89 11/12/2025 15:11:48 -74.20, 135.66 87.90 1.74 43
8 11/12/2025 16:01:51 74.21, -56.67 92.14 11/12/2025 16:01:13 74.21, -56.67 92.13 0.78 38
9 11/12/2025 16:51:09 -74.19, 111.06 87.87 11/12/2025 16:50:41 -74.20, 110.94 87.88 3.42 28
10 11/12/2025 17:40:29 74.21, -81.33 92.16 11/12/2025 17:40:06 74.21, -81.39 92.15 1.94 23
11 11/12/2025 18:29:48 -74.24, 86.27 87.81 11/12/2025 18:29:33 -74.25, 86.35 87.80 2.30 15
12 11/12/2025 19:19:07 74.22,-105.99 92.18 11/12/2025 19:18:59 74.21,-106.10 92.17 3.56 8
13 11/12/2025 20:08:26 -74.25, 61.61 87.79 11/12/2025 20:08:26 -74.25, 61.63 87.78 0.80 0
14 11/12/2025 20:57:46 74.27,-130.77 92.25 11/12/2025 20:57:51 74.26,-130.70 92.24 2.29 5
15 11/12/2025 21:47:04 -74.25, 36.95 87.77 11/12/2025 21:47:19 -74.25, 36.91 87.76 1.31 15
16 11/12/2025 22:36:24 74.27,-155.43 92.27 11/12/2025 22:36:44 74.26,-155.42 92.26 0.89 20
17 11/12/2025 23:25:42 -74.25, 12.29 87.75 11/12/2025 23:26:12 -74.26, 12.20 87.74 2.91 30
18 11/13/2025 00:15:02 74.27, 179.91 92.29 11/13/2025 00:15:37 74.27, 179.87 92.28 1.43 35
19 11/13/2025 01:04:21 -74.30, -12.49 87.68 11/13/2025 01:05:04 -74.31, -12.40 87.67 2.85 43
20 11/13/2025 01:53:40 74.27, 155.25 92.31 11/13/2025 01:54:30 74.27, 155.15 92.30 3.00 50
21 11/13/2025 02:42:59 -74.30, -37.15 87.66 11/13/2025 02:43:57 -74.31, -37.12 87.65 1.26 58
22 11/13/2025 03:32:19 74.33, 130.46 92.37 11/13/2025 03:33:22 74.32, 130.55 92.38 2.91 63
23 11/13/2025 04:21:38 -74.36, -61.94 87.60 11/13/2025 04:22:50 -74.31, -61.83 87.63 5.99 72
24 11/13/2025 05:11:02 74.59, 105.17 92.63 11/13/2025 05:12:11 74.53, 106.33 92.62 34.92 69
25 11/13/2025 06:00:27 -74.92, -88.00 87.06 11/13/2025 06:01:32 -74.87, -85.17 87.00 82.32 65



Historial Predications of SNOs between AURA and LANDSAT-8
